This is the latest recevied weather packets stored in our database for station/object W8BS. If no packets are shown the sender has not sent any weather packets the latest 10 day(s).
| Time | Temp. | Humidity | Pressure | Rain* | Wind** | Luminosity | Snow |
|---|---|---|---|---|---|---|---|
| 1777378160 | 11.67° C | 88% | 1013.4 hPa | 0 mm | - | 33 W/m² | - |
| 1777377853 | 11.67° C | 89% | 1013.2 hPa | 0 mm | - | 32 W/m² | - |
| 1777377547 | 11.67° C | 88% | 1013.5 hPa | 0 mm | - | 30 W/m² | - |
| 1777377242 | 11.67° C | 88% | 1013.7 hPa | 0 mm | - | 28 W/m² | - |
| 1777376940 | 11.67° C | 88% | 1013.7 hPa | 0 mm | - | 26 W/m² | - |
| 1777376637 | 11.67° C | 88% | 1013.9 hPa | 0 mm | - | 35 W/m² | - |
| 1777376334 | 11.67° C | 88% | 1013.8 hPa | 0 mm | - | 46 W/m² | - |
| 1777376029 | 11.11° C | 89% | 1013.9 hPa | 0 mm | - | 39 W/m² | - |
| 1777375729 | 11.11° C | 89% | 1014 hPa | 0 mm | - | 27 W/m² | - |
| 1777375424 | 11.11° C | 90% | 1014.1 hPa | 0 mm | - | 23 W/m² | - |
| 1777375122 | 10.56° C | 92% | 1014.3 hPa | 0 mm | - | 22 W/m² | - |
| 1777374820 | 10.56° C | 94% | 1014 hPa | 0 mm | - | 18 W/m² | - |
| 1777374517 | 10° C | 95% | 1013.4 hPa | 0 mm | - | 15 W/m² | - |
| 1777374214 | 10° C | 97% | 1013.5 hPa | 0 mm | - | 8 W/m² | - |
| 1777373910 | 10° C | 99% | 1013.4 hPa | 0 mm | - | 3 W/m² | - |
| 1777373607 | 9.44° C | 99% | 1012.8 hPa | 0 mm | - | 6 W/m² | - |
| 1777373304 | 9.44° C | 99% | 1012.7 hPa | 0 mm | - | 5 W/m² | - |
| 1777372999 | 9.44° C | 99% | 1013.4 hPa | 0 mm | - | 2 W/m² | - |
| 1777372695 | 9.44° C | 99% | 1014 hPa | 0 mm | - | 0 W/m² | - |
| 1777372394 | 9.44° C | 99% | 1013.9 hPa | 0 mm | - | 0 W/m² | - |
| 1777372092 | 9.44° C | 99% | 1014.2 hPa | 0 mm | - | 0 W/m² | - |
| 1777371788 | 9.44° C | 99% | 1014.4 hPa | 0 mm | - | 0 W/m² | - |
| 1777371485 | 9.44° C | 99% | 1014.9 hPa | 0 mm | - | 0 W/m² | - |
| 1777371181 | 9.44° C | 99% | 1014.9 hPa | 0 mm | - | 0 W/m² | - |
| 1777370877 | 9.44° C | 99% | 1014.6 hPa | 0 mm | - | 0 W/m² | - |
* Rain latest hour (hover to see other rain measurements)
** Current wind speed in m/s (hover to see current wind gust speed)